This demonstration page uses our WeatherBlox Daily Observations layout. Learn more.

Left ArrowRight Arrow

38.20091, -84.87328

Hourly Observations for January 13, 2020

Temp ( °F °C ) Dew Point ( °F °C ) Humidity (%) Winds ( mph kmh ) Pressure ( in mb ) Visibility ( mi km ) Precip ( " mm )
12:53 am 00:53 Mostly Cloudy 34 1.1 32 0 92 92 N 3 6 30.26 1025 10 16 0.00 0.00
1:24 am 01:24 Mostly Cloudy 35 1.7 33 0.6 93 93 Calm 30.28 1025 10 16 0.00 0.00
1:35 am 01:35 Partly Cloudy 35 1.7 33 0.6 93 93 Calm 30.28 1025 10 16 0.00 0.00
1:53 am 01:53 Clear 34 1.1 33 0.6 97 97 Calm 30.24 1024 10 16 0.00 0.00
2:53 am 02:53 Clear 33 0.6 32 0 96 96 Calm 30.25 1024 10 16 0.00 0.00
3:53 am 03:53 Clear 33 0.6 31 -0.6 92 92 Calm 30.26 1025 10 16 0.00 0.00
4:22 am 04:22 Mostly Cloudy with Mist and Fog 32 0 31 -0.6 96 96 Calm 30.29 1026 3 4 0.00 0.00
4:30 am 04:30 Mostly Cloudy 33 0.6 32 0 96 96 Calm 30.29 1026 10 16 0.00 0.00
4:53 am 04:53 Partly Cloudy 34 1.1 33 0.6 97 97 Calm 30.27 1025 9 14 0.00 0.00
5:05 am 05:05 Mostly Cloudy 33 0.6 32 0 96 96 Calm 30.30 1026 10 16 0.00 0.00
5:53 am 05:53 Cloudy 36 2.2 35 1.7 97 97 Calm 30.28 1025 10 16 0.00 0.00
6:31 am 06:31 Cloudy 39 3.9 37 2.8 93 93 WSW 3 6 30.32 1027 10 16 0.00 0.00
6:53 am 06:53 Cloudy 41 5 38 3.3 89 89 WSW 6 9 30.31 1026 10 16 0.00 0.00
7:53 am 07:53 Cloudy 42 5.6 38 3.3 85 85 WSW 3 6 30.33 1027 10 16 0.00 0.00
8:53 am 08:53 Cloudy 42 5.6 37 2.8 82 82 WSW 6 9 30.35 1028 10 16 0.00 0.00
9:53 am 09:53 Cloudy 42 5.6 37 2.8 82 82 SW 6 9 30.38 1029 10 16 0.00 0.00
10:53 am 10:53 Cloudy 43 6.1 37 2.8 80 80 SW 6 9 30.40 1029 10 16 0.00 0.00
11:53 am 11:53 Cloudy 44 6.7 38 3.3 79 79 SSW 7 11 30.40 1030 10 16 0.00 0.00
12:53 pm 12:53 Cloudy 44 6.7 37 2.8 76 76 Calm 30.38 1029 10 16 0.00 0.00
1:34 pm 13:34 Cloudy 46 7.8 38 3.3 73 73 Calm 30.37 1028 10 16 0.00 0.00
1:53 pm 13:53 Partly Cloudy 45 7.2 37 2.8 74 74 S 5 7 30.35 1028 10 16 0.00 0.00
2:53 pm 14:53 Sunny 48 8.9 38 3.3 68 68 Calm 30.33 1027 10 16 0.00 0.00
3:53 pm 15:53 Sunny 49 9.4 38 3.3 66 66 Calm 30.33 1027 10 16 0.00 0.00
4:53 pm 16:53 Sunny 47 8.3 37 2.8 69 69 Calm 30.33 1027 10 16 0.00 0.00
5:53 pm 17:53 Clear 43 6.1 37 2.8 80 80 E 3 6 30.33 1027 10 16 0.00 0.00
6:53 pm 18:53 Clear 39 3.9 35 1.7 86 86 Calm 30.32 1027 10 16 0.00 0.00
7:53 pm 19:53 Clear 42 5.6 37 2.8 82 82 E 3 6 30.29 1026 10 16 0.00 0.00
8:53 pm 20:53 Clear 41 5 37 2.8 86 86 E 3 6 30.28 1026 10 16 0.00 0.00
9:53 pm 21:53 Clear 42 5.6 37 2.8 82 82 ENE 3 6 30.26 1025 10 16 0.00 0.00
10:53 pm 22:53 Mostly Cloudy 43 6.1 38 3.3 82 82 Calm 30.26 1025 10 16 0.00 0.00
11:53 pm 23:53 Partly Cloudy 43 6.1 38 3.3 82 82 ENE 3 6 30.23 1024 10 16 0.00 0.00

Powered by AerisWeather